TimeEST,TemperatureF,Dew PointF,Humidity,Sea Level PressureIn,VisibilityMPH,Wind Direction,Wind SpeedMPH,Gust SpeedMPH,PrecipitationIn,Events,Conditions,WindDirDegrees,DateUTC
12:15 AM,39.2,27.3,62,30.03,10.0,WNW,4.6,-,N/A,,Clear,290,2013-03-07 05:15:00
12:35 AM,38.8,27.5,64,30.04,10.0,West,3.5,-,N/A,,Clear,280,2013-03-07 05:35:00
12:55 AM,38.5,27.5,65,30.04,10.0,Calm,Calm,-,N/A,,Clear,0,2013-03-07 05:55:00
1:15 AM,38.3,27.5,65,30.06,10.0,Calm,Calm,-,N/A,,Clear,0,2013-03-07 06:15:00
1:35 AM,37.9,27.3,66,30.06,10.0,WNW,4.6,-,N/A,,Clear,290,2013-03-07 06:35:00
1:55 AM,37.6,27.3,66,30.06,10.0,Calm,Calm,-,N/A,,Clear,0,2013-03-07 06:55:00
2:15 AM,37.4,27.3,67,30.07,10.0,WNW,3.5,-,N/A,,Clear,290,2013-03-07 07:15:00
2:35 AM,36.5,27.3,69,30.06,10.0,West,3.5,-,N/A,,Clear,280,2013-03-07 07:35:00
2:55 AM,36.1,27.3,70,30.06,10.0,Calm,Calm,-,N/A,,Clear,0,2013-03-07 07:55:00
3:15 AM,35.8,27.3,71,30.06,10.0,WNW,4.6,-,N/A,,Clear,300,2013-03-07 08:15:00
3:35 AM,35.6,27.3,72,30.06,10.0,WNW,3.5,-,N/A,,Clear,290,2013-03-07 08:35:00
3:55 AM,35.6,27.1,71,30.06,10.0,NW,3.5,-,N/A,,Clear,320,2013-03-07 08:55:00
4:15 AM,35.6,27.1,71,30.07,10.0,WNW,4.6,-,N/A,,Clear,290,2013-03-07 09:15:00
4:35 AM,35.1,27.1,73,30.08,10.0,West,3.5,-,N/A,,Clear,270,2013-03-07 09:35:00
4:55 AM,34.9,27.3,74,30.09,10.0,West,3.5,-,N/A,,Clear,270,2013-03-07 09:55:00
5:15 AM,34.7,27.1,74,30.10,10.0,West,3.5,-,N/A,,Clear,280,2013-03-07 10:15:00
5:35 AM,34.7,27.1,74,30.11,10.0,WNW,3.5,-,N/A,,Clear,290,2013-03-07 10:35:00
5:55 AM,34.9,27.1,73,30.12,10.0,West,5.8,-,N/A,,Clear,270,2013-03-07 10:55:00
6:15 AM,34.9,27.1,73,30.13,10.0,West,3.5,-,N/A,,Clear,280,2013-03-07 11:15:00
6:35 AM,34.9,27.1,73,30.14,10.0,WNW,4.6,-,N/A,,Clear,290,2013-03-07 11:35:00
6:55 AM,35.2,27.1,72,30.15,10.0,WNW,4.6,-,N/A,,Clear,290,2013-03-07 11:55:00
7:15 AM,36.1,27.5,71,30.16,10.0,WNW,5.8,-,N/A,,Clear,300,2013-03-07 12:15:00
7:35 AM,37.4,27.5,67,30.16,10.0,WNW,5.8,-,N/A,,Clear,300,2013-03-07 12:35:00
7:55 AM,38.7,28.0,66,30.17,10.0,WNW,3.5,-,N/A,,Clear,300,2013-03-07 12:55:00
8:15 AM,40.1,27.9,62,30.18,10.0,NW,6.9,-,N/A,,Clear,310,2013-03-07 13:15:00
8:35 AM,41.0,28.4,61,30.18,10.0,NW,4.6,-,N/A,,Clear,320,2013-03-07 13:35:00
8:55 AM,42.1,28.2,58,30.19,10.0,NNW,4.6,-,N/A,,Clear,330,2013-03-07 13:55:00
9:15 AM,43.9,28.6,55,30.18,10.0,North,5.8,-,N/A,,Clear,350,2013-03-07 14:15:00
9:35 AM,45.1,28.2,52,30.18,10.0,WNW,5.8,-,N/A,,Clear,300,2013-03-07 14:35:00
9:55 AM,46.4,28.2,49,30.18,10.0,NNW,6.9,-,N/A,,Clear,330,2013-03-07 14:55:00
10:15 AM,47.1,28.4,48,30.18,10.0,NNW,5.8,-,N/A,,Clear,340,2013-03-07 15:15:00
10:35 AM,47.7,28.9,48,30.17,10.0,North,5.8,-,N/A,,Clear,10,2013-03-07 15:35:00
10:55 AM,48.7,28.9,46,30.17,10.0,WNW,9.2,-,N/A,,Clear,290,2013-03-07 15:55:00
11:15 AM,49.3,28.8,45,30.16,10.0,WNW,3.5,-,N/A,,Clear,300,2013-03-07 16:15:00
11:35 AM,50.2,28.8,44,30.16,10.0,West,5.8,-,N/A,,Clear,270,2013-03-07 16:35:00
11:55 AM,50.5,28.0,42,30.15,10.0,North,6.9,-,N/A,,Clear,360,2013-03-07 16:55:00
12:15 PM,51.3,28.8,42,30.14,10.0,NNW,5.8,-,N/A,,Clear,340,2013-03-07 17:15:00
12:35 PM,51.8,28.6,41,30.13,10.0,WNW,5.8,-,N/A,,Clear,290,2013-03-07 17:35:00
12:55 PM,52.9,28.9,40,30.12,10.0,North,8.1,-,N/A,,Clear,10,2013-03-07 17:55:00
1:15 PM,53.4,28.0,38,30.12,10.0,West,9.2,-,N/A,,Clear,280,2013-03-07 18:15:00
1:35 PM,54.1,28.9,38,30.11,10.0,WNW,6.9,-,N/A,,Clear,290,2013-03-07 18:35:00
1:55 PM,54.5,28.9,38,30.10,10.0,WSW,4.6,-,N/A,,Clear,250,2013-03-07 18:55:00
2:15 PM,54.1,28.9,38,30.09,10.0,West,4.6,-,N/A,,Clear,280,2013-03-07 19:15:00
2:35 PM,54.7,28.9,37,30.09,10.0,WNW,6.9,-,N/A,,Clear,300,2013-03-07 19:35:00
2:55 PM,55.4,29.3,37,30.09,10.0,West,5.8,-,N/A,,Clear,260,2013-03-07 19:55:00
3:15 PM,54.9,28.6,37,30.09,10.0,NNW,6.9,-,N/A,,Clear,330,2013-03-07 20:15:00
3:35 PM,55.4,29.3,37,30.10,10.0,NW,3.5,-,N/A,,Clear,320,2013-03-07 20:35:00
3:55 PM,55.4,29.5,37,30.10,10.0,West,8.1,-,N/A,,Clear,270,2013-03-07 20:55:00
4:15 PM,55.0,29.1,37,30.10,10.0,WNW,5.8,-,N/A,,Clear,290,2013-03-07 21:15:00
4:35 PM,54.7,28.9,37,30.10,10.0,North,4.6,-,N/A,,Clear,350,2013-03-07 21:35:00
4:55 PM,54.5,28.9,38,30.10,10.0,West,6.9,-,N/A,,Clear,280,2013-03-07 21:55:00
5:15 PM,54.1,29.3,39,30.11,10.0,Calm,Calm,-,N/A,,Clear,0,2013-03-07 22:15:00
5:35 PM,53.6,29.5,40,30.11,10.0,Calm,Calm,-,N/A,,Clear,0,2013-03-07 22:35:00
5:55 PM,52.7,30.0,42,30.12,10.0,Calm,Calm,-,N/A,,Clear,0,2013-03-07 22:55:00
6:15 PM,51.3,30.7,45,30.13,10.0,Calm,Calm,-,N/A,,Clear,0,2013-03-07 23:15:00
6:35 PM,49.8,30.9,48,30.14,10.0,Calm,Calm,-,N/A,,Clear,0,2013-03-07 23:35:00
6:55 PM,47.8,31.8,54,30.15,10.0,Calm,Calm,-,N/A,,Clear,0,2013-03-07 23:55:00
8:35 PM,42.1,33.1,70,30.17,10.0,Calm,Calm,-,N/A,,Clear,0,2013-03-08 01:35:00
8:55 PM,41.7,33.3,72,30.18,10.0,Calm,Calm,-,N/A,,Clear,0,2013-03-08 01:55:00
9:15 PM,43.3,31.8,64,30.19,10.0,Calm,Calm,-,N/A,,Clear,0,2013-03-08 02:15:00
9:35 PM,43.7,31.3,62,30.20,10.0,Calm,Calm,-,N/A,,Clear,0,2013-03-08 02:35:00
9:55 PM,44.2,30.4,58,30.20,10.0,North,3.5,-,N/A,,Clear,360,2013-03-08 02:55:00
10:15 PM,44.1,29.7,57,30.21,10.0,North,3.5,-,N/A,,Clear,10,2013-03-08 03:15:00
10:35 PM,43.9,29.1,56,30.21,10.0,North,5.8,-,N/A,,Clear,10,2013-03-08 03:35:00
10:55 PM,43.7,28.4,55,30.21,10.0,North,4.6,-,N/A,,Clear,360,2013-03-08 03:55:00
11:15 PM,42.8,28.4,57,30.21,10.0,Calm,Calm,-,N/A,,Clear,0,2013-03-08 04:15:00
11:35 PM,41.7,28.4,59,30.21,10.0,Calm,Calm,-,N/A,,Clear,0,2013-03-08 04:35:00
11:55 PM,40.1,28.9,64,30.21,10.0,Calm,Calm,-,N/A,,Clear,0,2013-03-08 04:55:00